Location: ?????????
(41.1143°N, 22.7905°E)
Time: 16:47:20
(UTC+00:00)

COSMO-SKYMED 1 - Pass Details

Date: 13 December 2025
Orbit: 578 x 580 km, 97.9° (Epoch: 16 January)

Event Time Altitude Azimuth Distance (km) Brightness Sun altitude
Exits shadow 16:25:06 25° 49° (NE) 1,191 3.5 -15.3°
Maximum altitude 16:26:52 37° 98° (E) 901 2.9 -15.7°
Drops below altitude 10° 16:30:41 10° 167° (SSE) 1,885 5.1 -16.3°
Sets 16:32:56 0° 175° (S) 2,778 6.1 -16.8°
